M I D A S
Marine Information and Data Acquisition System
Tripno 740 of the Zeeleeuw from 2004-06-28 06:41:01 to 2004-06-28 13:31:46
Back to CruiseResearch ActivitiesStationsMapUnderway DataData graphs

EquipmentUnitsComments
TimeDGPSUTC
LatitudeDGPSDM.mWGS84
LongitudeDGPSDM.mWGS84
SpeedMeteo Stationm/sRelative wind speed
DirectionMeteo StationdegRelative wind direction
TemperatureMeteo Stationdeg CelciusAir temperature
PressureMeteo StationPaAtmospheric pressure
HumidityMeteo Station%Relative humidity
Missing or incorrect values are displayed as -999
Metereological data collected by the RV Zeeleeuw from 2004-06-28 06:41:01 to 2004-06-28 13:31:46
                                                                                    Next 1000 lines
Time Latitude Longitude Speed Direction Temperature Pressure Humidity
2004-06-28 06:41:09 51°13.597 2°56.096 4.3 183 14.7 102470 77
2004-06-28 06:41:14 51°13.597 2°56.096 4.1 177 14.7 102470 77
2004-06-28 06:41:19 51°13.597 2°56.096 4.6 160 14.7 102480 77
2004-06-28 06:41:24 51°13.596 2°56.096 4.6 186 14.7 102480 77
2004-06-28 06:41:29 51°13.596 2°56.096 3.4 216 14.7 102480 77
2004-06-28 06:41:34 51°13.596 2°56.096 3.3 179 14.7 102480 77
2004-06-28 06:41:38 51°13.596 2°56.095 3.6 178 14.7 102480 77
2004-06-28 06:41:44 51°13.596 2°56.093 3 196 14.7 102480 77
2004-06-28 06:41:49 51°13.597 2°56.09 4 193 14.7 102480 77
2004-06-28 06:41:54 51°13.598 2°56.087 7.1 189 14.7 102480 77
2004-06-28 06:41:59 51°13.599 2°56.082 6.3 183 14.7 102480 77
2004-06-28 06:42:04 51°13.6 2°56.078 4 198 14.7 102480 77
2004-06-28 06:42:09 51°13.602 2°56.073 5.8 198 14.8 102480 78
2004-06-28 06:42:14 51°13.603 2°56.067 6.3 177 14.8 102480 78
2004-06-28 06:42:20 51°13.606 2°56.06 5.7 187 14.8 102480 78
2004-06-28 06:42:25 51°13.608 2°56.053 7.9 173 14.8 102480 78
2004-06-28 06:42:29 51°13.609 2°56.047 5.2 174 14.9 102480 78
2004-06-28 06:42:34 51°13.612 2°56.039 4.5 189 14.9 102480 78
2004-06-28 06:42:40 51°13.614 2°56.03 4.6 177 14.9 102480 78
2004-06-28 06:42:45 51°13.617 2°56.022 6.3 171 14.9 102480 78
2004-06-28 06:42:49 51°13.619 2°56.015 8.1 159 14.9 102480 77
2004-06-28 06:42:54 51°13.622 2°56.007 6 180 14.9 102480 77
2004-06-28 06:43:00 51°13.625 2°55.996 6.3 179 14.9 102480 77
2004-06-28 06:43:05 51°13.628 2°55.988 5.3 186 14.9 102480 77
2004-06-28 06:43:09 51°13.631 2°55.981 4.2 187 14.9 102480 76
2004-06-28 06:43:14 51°13.634 2°55.972 4.5 184 14.9 102480 76
2004-06-28 06:43:20 51°13.637 2°55.962 7.2 179 14.9 102470 77
2004-06-28 06:43:25 51°13.64 2°55.953 4.9 192 14.9 102470 77
2004-06-28 06:43:30 51°13.643 2°55.944 5.3 190 15 102470 77
2004-06-28 06:43:34 51°13.645 2°55.937 4.5 177 15 102470 77
2004-06-28 06:43:39 51°13.647 2°55.927 3.5 210 15 102480 77
2004-06-28 06:43:45 51°13.65 2°55.916 4.7 183 15 102480 77
2004-06-28 06:43:49 51°13.652 2°55.908 5.2 186 15.1 102480 77
2004-06-28 06:43:54 51°13.654 2°55.899 4.8 207 15.1 102480 77
2004-06-28 06:43:59 51°13.656 2°55.889 4.6 201 15.1 102470 77
2004-06-28 06:44:05 51°13.658 2°55.878 6.9 182 15.1 102470 77
2004-06-28 06:44:10 51°13.659 2°55.868 5.8 178 15.1 102480 77
2004-06-28 06:44:14 51°13.66 2°55.86 6.6 192 15.1 102480 77
2004-06-28 06:44:19 51°13.661 2°55.85 7.2 210 15.1 102480 76
2004-06-28 06:44:25 51°13.662 2°55.838 7.8 214 15.1 102480 76
2004-06-28 06:44:29 51°13.662 2°55.83 8.5 213 15.1 102480 76
2004-06-28 06:44:34 51°13.663 2°55.82 7.4 220 15.1 102480 76
2004-06-28 06:44:40 51°13.663 2°55.809 9.4 212 15.1 102490 76
2004-06-28 06:44:45 51°13.663 2°55.802 6 214 15.1 102490 76
2004-06-28 06:44:49 51°13.663 2°55.797 6.4 212 15.1 102480 76
2004-06-28 06:44:54 51°13.663 2°55.793 6.1 221 15.1 102480 76
2004-06-28 06:44:59 51°13.663 2°55.79 6.4 245 15.1 102500 75
2004-06-28 06:45:04 51°13.663 2°55.788 4.2 246 15.1 102500 75
2004-06-28 06:45:09 51°13.664 2°55.788 5.6 233 15.1 102490 75
2004-06-28 06:45:14 51°13.664 2°55.789 6.3 230 15.1 102490 75
2004-06-28 06:45:18 51°13.665 2°55.79 5 247 15 102480 75
2004-06-28 06:45:24 51°13.666 2°55.792 5.5 261 15 102480 75
2004-06-28 06:45:29 51°13.668 2°55.794 7.3 262 15 102490 75
2004-06-28 06:45:34 51°13.671 2°55.796 7.3 269 15 102490 75
2004-06-28 06:45:38 51°13.673 2°55.798 5.8 284 15 102490 75
2004-06-28 06:45:43 51°13.676 2°55.8 5.8 279 15 102490 75
2004-06-28 06:45:49 51°13.679 2°55.802 6 266 14.9 102480 75
2004-06-28 06:45:54 51°13.681 2°55.803 7.2 263 14.9 102480 75
2004-06-28 06:45:59 51°13.682 2°55.803 6.2 267 14.9 102480 75
2004-06-28 06:46:04 51°13.682 2°55.804 5 262 14.9 102480 75
2004-06-28 06:46:09 51°13.681 2°55.804 5.6 267 14.9 102480 75
2004-06-28 06:46:14 51°13.68 2°55.805 4.9 254 14.9 102480 75
2004-06-28 06:46:18 51°13.678 2°55.805 4.8 254 14.8 102480 75
2004-06-28 06:46:25 51°13.676 2°55.805 3 274 14.8 102480 75
2004-06-28 06:46:30 51°13.675 2°55.805 3.9 287 14.8 102470 75
2004-06-28 06:46:34 51°13.675 2°55.806 6.4 276 14.8 102470 75
2004-06-28 06:46:38 51°13.677 2°55.806 6 291 14.8 102480 76
2004-06-28 06:46:45 51°13.681 2°55.805 6.7 304 14.8 102480 76
2004-06-28 06:46:49 51°13.685 2°55.803 6.9 324 14.8 102480 76
2004-06-28 06:46:54 51°13.69 2°55.799 6.9 324 14.8 102480 76
2004-06-28 06:46:58 51°13.694 2°55.795 6.1 338 14.8 102480 76
2004-06-28 06:47:04 51°13.7 2°55.788 5.4 347 14.8 102480 76
2004-06-28 06:47:09 51°13.704 2°55.782 5 354 14.8 102480 76
2004-06-28 06:47:14 51°13.71 2°55.774 6.7 348 14.8 102480 76
2004-06-28 06:47:18 51°13.714 2°55.768 5.8 7 14.8 102470 76
2004-06-28 06:47:24 51°13.721 2°55.758 5.8 340 14.8 102470 76
2004-06-28 06:47:29 51°13.727 2°55.75 6.9 341 14.8 102460 76
2004-06-28 06:47:34 51°13.733 2°55.741 7.2 343 14.8 102460 76
2004-06-28 06:47:40 51°13.741 2°55.73 8.4 335 14.9 102470 76
2004-06-28 06:47:44 51°13.747 2°55.722 7.1 354 14.9 102470 76
2004-06-28 06:47:49 51°13.754 2°55.713 4.9 359 14.9 102470 76
2004-06-28 06:47:54 51°13.761 2°55.703 5.5 357 14.9 102470 76
2004-06-28 06:47:58 51°13.767 2°55.696 7.3 21 14.9 102460 76
2004-06-28 06:48:04 51°13.776 2°55.685 5.6 19 14.9 102460 76
2004-06-28 06:48:09 51°13.784 2°55.676 5.3 4 14.8 102460 76
2004-06-28 06:48:14 51°13.793 2°55.667 4.9 3 14.8 102460 76
2004-06-28 06:48:18 51°13.799 2°55.66 5.1 26 14.9 102470 76
2004-06-28 06:48:24 51°13.81 2°55.65 6.6 3 14.9 102470 76
2004-06-28 06:48:28 51°13.817 2°55.644 6.7 7 14.9 102470 76
2004-06-28 06:48:34 51°13.828 2°55.634 7.4 3 14.9 102470 76
2004-06-28 06:48:39 51°13.837 2°55.626 7.8 356 14.9 102470 76
2004-06-28 06:48:44 51°13.846 2°55.618 8.8 340 14.9 102470 76
2004-06-28 06:48:49 51°13.855 2°55.61 8.8 335 14.9 102460 76
2004-06-28 06:48:54 51°13.865 2°55.603 8.9 338 14.9 102460 76
2004-06-28 06:48:58 51°13.873 2°55.598 8.3 356 14.8 102460 76
2004-06-28 06:49:04 51°13.884 2°55.589 8.2 342 14.8 102460 76
2004-06-28 06:49:08 51°13.892 2°55.584 8.5 335 14.9 102460 75
2004-06-28 06:49:14 51°13.904 2°55.576 7.1 345 14.9 102460 75
2004-06-28 06:49:19 51°13.914 2°55.569 7.1 341 14.8 102460 75
2004-06-28 06:49:24 51°13.923 2°55.562 8.1 344 14.8 102460 75
2004-06-28 06:49:29 51°13.933 2°55.555 7.1 336 14.8 102460 75
2004-06-28 06:49:34 51°13.944 2°55.548 8.5 341 14.8 102460 75
2004-06-28 06:49:39 51°13.953 2°55.541 7.3 350 14.8 102460 75
2004-06-28 06:49:44 51°13.963 2°55.534 8.5 347 14.8 102460 75
2004-06-28 06:49:49 51°13.973 2°55.527 7.6 325 14.8 102470 75
2004-06-28 06:49:54 51°13.984 2°55.519 7.8 345 14.8 102470 75
2004-06-28 06:49:58 51°13.992 2°55.513 8.9 341 14.8 102460 74
2004-06-28 06:50:04 51°14.005 2°55.504 6.9 336 14.8 102460 74
2004-06-28 06:50:09 51°14.016 2°55.497 6.9 339 14.8 102470 74
2004-06-28 06:50:13 51°14.025 2°55.49 9.1 353 14.8 102470 74
2004-06-28 06:50:17 51°14.034 2°55.484 10 334 14.8 102470 74
2004-06-28 06:50:24 51°14.049 2°55.474 9.8 342 14.8 102470 74
2004-06-28 06:50:29 51°14.061 2°55.466 11.1 342 14.8 102460 74
2004-06-28 06:50:34 51°14.072 2°55.459 10.1 343 14.8 102460 74
2004-06-28 06:50:38 51°14.081 2°55.453 12 337 14.8 102470 74
2004-06-28 06:50:44 51°14.095 2°55.444 12 331 14.8 102470 74
2004-06-28 06:50:49 51°14.106 2°55.437 12.7 333 14.8 102460 74
2004-06-28 06:50:54 51°14.118 2°55.429 12.6 337 14.8 102460 74
2004-06-28 06:50:58 51°14.127 2°55.423 12.3 341 14.9 102450 74
2004-06-28 06:51:04 51°14.142 2°55.413 13.3 335 14.9 102450 74
2004-06-28 06:51:08 51°14.151 2°55.405 12.3 337 14.9 102440 73
2004-06-28 06:51:13 51°14.163 2°55.396 11.3 336 14.9 102440 73
2004-06-28 06:51:18 51°14.174 2°55.385 12.3 346 14.9 102450 73
2004-06-28 06:51:24 51°14.188 2°55.372 12.7 346 14.9 102450 73
2004-06-28 06:51:29 51°14.2 2°55.36 13.2 343 14.9 102450 73
2004-06-28 06:51:34 51°14.211 2°55.347 12 348 14.9 102450 73
2004-06-28 06:51:38 51°14.22 2°55.336 12.5 348 14.9 102450 73
2004-06-28 06:51:42 51°14.229 2°55.324 11.8 358 14.9 102450 73
2004-06-28 06:51:49 51°14.243 2°55.301 13.4 352 14.9 102450 73
2004-06-28 06:51:53 51°14.251 2°55.288 12.7 358 14.9 102450 73
2004-06-28 06:51:59 51°14.263 2°55.267 13.4 355 14.8 102460 73
2004-06-28 06:52:04 51°14.272 2°55.249 12.5 355 14.8 102460 73
2004-06-28 06:52:09 51°14.282 2°55.23 13.3 354 14.8 102450 73
2004-06-28 06:52:14 51°14.292 2°55.212 13.8 356 14.8 102450 73
2004-06-28 06:52:18 51°14.3 2°55.197 14.3 354 14.8 102450 72
2004-06-28 06:52:24 51°14.312 2°55.175 14.1 353 14.8 102450 72
2004-06-28 06:52:29 51°14.321 2°55.156 13.8 355 14.8 102450 72
2004-06-28 06:52:34 51°14.331 2°55.137 13.3 354 14.8 102450 72
2004-06-28 06:52:38 51°14.339 2°55.121 13.9 354 14.8 102440 72
2004-06-28 06:52:44 51°14.351 2°55.097 14.2 353 14.8 102440 72
2004-06-28 06:52:49 51°14.361 2°55.077 14 354 14.8 102440 72
2004-06-28 06:52:52 51°14.367 2°55.066 12.5 351 14.8 102440 72
2004-06-28 06:52:59 51°14.386 2°55.042 13.1 352 14.8 102440 72
2004-06-28 06:53:04 51°14.4 2°55.027 13.5 349 14.8 102440 72
2004-06-28 06:53:08 51°14.411 2°55.013 13.5 353 14.8 102440 72
2004-06-28 06:53:14 51°14.429 2°54.995 14.7 346 14.8 102440 72
2004-06-28 06:53:16 51°14.435 2°54.988 14.7 345 14.8 102440 72
2004-06-28 06:53:24 51°14.46 2°54.964 14.4 345 14.8 102440 72
2004-06-28 06:53:29 51°14.475 2°54.949 15.2 346 14.8 102450 72
2004-06-28 06:53:34 51°14.491 2°54.934 14.9 345 14.8 102450 72
2004-06-28 06:53:39 51°14.507 2°54.919 14.9 346 14.8 102440 73
2004-06-28 06:53:44 51°14.522 2°54.904 15.1 344 14.8 102440 73
2004-06-28 06:53:49 51°14.538 2°54.889 13.7 343 14.8 102430 73
2004-06-28 06:53:54 51°14.554 2°54.874 13.4 343 14.8 102430 73
2004-06-28 06:54:00 51°14.573 2°54.856 13.8 347 14.8 102430 72
2004-06-28 06:54:04 51°14.585 2°54.844 15.5 351 14.8 102430 72
2004-06-28 06:54:09 51°14.601 2°54.828 14.8 353 14.8 102430 72
2004-06-28 06:54:14 51°14.616 2°54.813 14.9 350 14.8 102430 72
2004-06-28 06:54:18 51°14.629 2°54.801 14.1 348 14.8 102440 72
2004-06-28 06:54:24 51°14.648 2°54.782 14.5 348 14.8 102440 72
2004-06-28 06:54:29 51°14.664 2°54.768 15.3 347 14.8 102430 72
2004-06-28 06:54:33 51°14.676 2°54.756 13.6 349 14.8 102430 72
2004-06-28 06:54:37 51°14.689 2°54.743 15.1 353 14.8 102450 72
2004-06-28 06:54:44 51°14.711 2°54.722 14.7 350 14.8 102450 72
2004-06-28 06:54:49 51°14.727 2°54.707 14.2 351 14.8 102440 72
2004-06-28 06:54:52 51°14.736 2°54.698 15.2 351 14.8 102440 72
2004-06-28 06:54:57 51°14.752 2°54.684 15.8 351 14.8 102440 72
2004-06-28 06:55:05 51°14.778 2°54.66 15.6 351 14.8 102440 72
2004-06-28 06:55:09 51°14.791 2°54.648 15 352 14.8 102440 72
2004-06-28 06:55:14 51°14.807 2°54.633 15.3 353 14.8 102440 72
2004-06-28 06:55:18 51°14.819 2°54.622 15.7 352 14.8 102440 72
2004-06-28 06:55:25 51°14.842 2°54.601 15 349 14.8 102440 72
2004-06-28 06:55:29 51°14.854 2°54.589 14.2 350 14.8 102430 72
2004-06-28 06:55:33 51°14.867 2°54.578 14.1 350 14.8 102430 72
2004-06-28 06:55:38 51°14.883 2°54.563 14.2 352 14.8 102440 72
2004-06-28 06:55:45 51°14.905 2°54.542 14.4 353 14.8 102440 72
2004-06-28 06:55:49 51°14.918 2°54.531 13.9 351 14.8 102420 72
2004-06-28 06:55:54 51°14.934 2°54.516 13.7 350 14.8 102420 72
2004-06-28 06:55:58 51°14.946 2°54.504 14 349 14.8 102430 72
2004-06-28 06:56:02 51°14.959 2°54.492 14.6 351 14.8 102430 72
2004-06-28 06:56:09 51°14.981 2°54.471 14.4 352 14.8 102450 72
2004-06-28 06:56:14 51°14.997 2°54.456 13.8 347 14.8 102450 72
2004-06-28 06:56:18 51°15.009 2°54.444 13.6 350 14.7 102440 72
2004-06-28 06:56:25 51°15.031 2°54.423 13.9 350 14.7 102440 72
2004-06-28 06:56:29 51°15.044 2°54.412 14.4 349 14.7 102430 71
2004-06-28 06:56:34 51°15.06 2°54.397 15 344 14.7 102430 71
2004-06-28 06:56:39 51°15.075 2°54.382 14.5 344 14.7 102430 72
2004-06-28 06:56:45 51°15.095 2°54.364 15 345 14.7 102430 72
2004-06-28 06:56:48 51°15.104 2°54.355 15.9 347 14.7 102440 72
2004-06-28 06:56:54 51°15.123 2°54.337 14.9 349 14.7 102440 72
2004-06-28 06:56:58 51°15.136 2°54.325 15.1 349 14.7 102440 72
2004-06-28 06:57:04 51°15.155 2°54.307 14.1 349 14.7 102440 72
2004-06-28 06:57:09 51°15.171 2°54.293 13.4 350 14.8 102430 72
2004-06-28 06:57:14 51°15.187 2°54.278 14.3 353 14.8 102430 72
2004-06-28 06:57:18 51°15.199 2°54.266 13.9 351 14.8 102430 72
2004-06-28 06:57:22 51°15.212 2°54.254 14.8 356 14.8 102430 72
2004-06-28 06:57:29 51°15.235 2°54.234 14.7 351 14.7 102430 71
2004-06-28 06:57:34 51°15.251 2°54.219 14.8 349 14.7 102430 71
2004-06-28 06:57:38 51°15.263 2°54.207 14.3 353 14.7 102440 71
2004-06-28 06:57:45 51°15.285 2°54.186 13.9 346 14.7 102440 71
2004-06-28 06:57:49 51°15.298 2°54.174 13.9 347 14.7 102450 72
2004-06-28 06:57:51 51°15.304 2°54.168 14.6 350 14.7 102450 72
2004-06-28 06:57:58 51°15.327 2°54.148 14.1 349 14.8 102430 72
2004-06-28 06:58:05 51°15.349 2°54.128 14.6 346 14.8 102430 72
2004-06-28 06:58:09 51°15.362 2°54.116 14.8 346 14.7 102430 72
2004-06-28 06:58:14 51°15.378 2°54.101 14 344 14.7 102430 72
2004-06-28 06:58:17 51°15.387 2°54.092 14.3 349 14.8 102440 72
2004-06-28 06:58:25 51°15.412 2°54.068 12.9 345 14.8 102440 72
2004-06-28 06:58:29 51°15.425 2°54.056 13.6 345 14.7 102430 72
2004-06-28 06:58:35 51°15.444 2°54.038 15 349 14.7 102430 72
2004-06-28 06:58:38 51°15.453 2°54.029 14.7 349 14.7 102430 72
2004-06-28 06:58:45 51°15.476 2°54.008 15.1 351 14.7 102430 72
2004-06-28 06:58:49 51°15.488 2°53.996 14.5 351 14.7 102430 72
2004-06-28 06:58:54 51°15.504 2°53.981 14.2 350 14.7 102430 72
2004-06-28 06:58:57 51°15.513 2°53.973 14.9 351 14.7 102430 72
2004-06-28 06:59:05 51°15.539 2°53.948 14.2 350 14.7 102430 72
2004-06-28 06:59:09 51°15.551 2°53.936 15.1 349 14.7 102430 72
2004-06-28 06:59:14 51°15.567 2°53.921 14.2 350 14.7 102430 72
2004-06-28 06:59:18 51°15.58 2°53.91 14.6 346 14.7 102430 71
2004-06-28 06:59:25 51°15.602 2°53.888 14.6 348 14.7 102430 71
2004-06-28 06:59:29 51°15.615 2°53.876 13.5 351 14.7 102430 71
2004-06-28 06:59:34 51°15.631 2°53.861 13.9 352 14.7 102430 71
2004-06-28 06:59:38 51°15.644 2°53.85 13.3 352 14.7 102420 71
2004-06-28 06:59:45 51°15.666 2°53.829 13.9 351 14.7 102420 71
2004-06-28 06:59:49 51°15.679 2°53.817 14.3 350 14.7 102430 72
2004-06-28 06:59:54 51°15.695 2°53.802 13.8 354 14.7 102430 72
2004-06-28 06:59:58 51°15.707 2°53.79 13.1 351 14.8 102440 72
2004-06-28 07:00:05 51°15.729 2°53.769 13.7 349 14.8 102440 72
2004-06-28 07:00:09 51°15.742 2°53.757 14.7 350 14.8 102440 72
2004-06-28 07:00:14 51°15.758 2°53.742 14.8 350 14.8 102440 72
2004-06-28 07:00:18 51°15.771 2°53.73 15.6 348 14.8 102420 73
2004-06-28 07:00:25 51°15.793 2°53.71 16.4 352 14.8 102420 73
2004-06-28 07:00:29 51°15.806 2°53.698 15.7 354 14.8 102430 73
2004-06-28 07:00:33 51°15.819 2°53.686 15.3 358 14.8 102430 73
2004-06-28 07:00:39 51°15.838 2°53.668 14.9 356 14.8 102430 73
2004-06-28 07:00:44 51°15.854 2°53.654 15.9 355 14.8 102430 73
2004-06-28 07:00:49 51°15.869 2°53.639 15 354 14.8 102410 72
2004-06-28 07:00:54 51°15.885 2°53.624 13.5 352 14.8 102410 72
2004-06-28 07:00:58 51°15.898 2°53.612 14.4 356 14.8 102420 72
2004-06-28 07:01:05 51°15.92 2°53.593 14.2 352 14.8 102420 72
2004-06-28 07:01:09 51°15.933 2°53.582 14.9 354 14.8 102430 72
2004-06-28 07:01:14 51°15.949 2°53.569 15.4 354 14.8 102430 72
2004-06-28 07:01:19 51°15.966 2°53.556 14.5 349 14.8 102430 72
2004-06-28 07:01:24 51°15.983 2°53.545 13.6 350 14.8 102430 72
2004-06-28 07:01:29 51°16 2°53.534 14.6 350 14.8 102440 72
2004-06-28 07:01:34 51°16.018 2°53.523 15.5 352 14.8 102440 72
2004-06-28 07:01:39 51°16.035 2°53.513 15.1 346 14.8 102430 73
2004-06-28 07:01:44 51°16.053 2°53.503 14.5 350 14.8 102430 73
2004-06-28 07:01:49 51°16.07 2°53.493 14.3 345 14.9 102430 73
2004-06-28 07:01:54 51°16.088 2°53.483 14 342 14.9 102430 73
2004-06-28 07:01:59 51°16.106 2°53.473 15 343 14.8 102430 72
2004-06-28 07:02:04 51°16.123 2°53.463 13.6 343 14.8 102430 72
2004-06-28 07:02:09 51°16.14 2°53.452 14.8 344 14.8 102430 71
2004-06-28 07:02:14 51°16.158 2°53.44 14.7 344 14.8 102430 71
2004-06-28 07:02:18 51°16.172 2°53.431 14.6 344 14.7 102430 71
2004-06-28 07:02:23 51°16.188 2°53.419 13.1 347 14.7 102430 71
2004-06-28 07:02:29 51°16.209 2°53.404 15 341 14.8 102430 72
2004-06-28 07:02:34 51°16.226 2°53.392 14 346 14.8 102430 72
2004-06-28 07:02:39 51°16.243 2°53.38 13.7 346 14.8 102430 72
2004-06-28 07:02:43 51°16.257 2°53.37 13.9 345 14.8 102430 72
2004-06-28 07:02:49 51°16.277 2°53.355 14.1 346 14.8 102420 72
2004-06-28 07:02:54 51°16.294 2°53.344 15 345 14.8 102420 72
2004-06-28 07:02:58 51°16.307 2°53.334 13.6 344 14.8 102420 72
2004-06-28 07:03:05 51°16.331 2°53.317 13.8 349 14.8 102420 72
2004-06-28 07:03:09 51°16.344 2°53.307 13.7 348 14.8 102420 72
2004-06-28 07:03:14 51°16.361 2°53.295 14.6 351 14.8 102420 72
2004-06-28 07:03:18 51°16.374 2°53.285 14.5 349 14.8 102420 72
2004-06-28 07:03:24 51°16.395 2°53.271 13.3 347 14.8 102420 72
2004-06-28 07:03:28 51°16.408 2°53.26 12.6 347 14.8 102440 72
2004-06-28 07:03:34 51°16.428 2°53.246 13 345 14.8 102440 72
2004-06-28 07:03:39 51°16.445 2°53.234 14 342 14.8 102440 72
2004-06-28 07:03:41 51°16.452 2°53.229 13.9 349 14.8 102440 72
2004-06-28 07:03:49 51°16.479 2°53.209 13.6 351 14.7 102430 72
2004-06-28 07:03:54 51°16.495 2°53.196 14.2 358 14.7 102430 72
2004-06-28 07:03:57 51°16.506 2°53.189 15.6 353 14.8 102440 72
2004-06-28 07:04:05 51°16.532 2°53.169 15.1 349 14.8 102440 72
2004-06-28 07:04:09 51°16.546 2°53.159 15 352 14.8 102440 72
2004-06-28 07:04:14 51°16.563 2°53.147 14.7 350 14.8 102440 72
2004-06-28 07:04:19 51°16.58 2°53.134 15.6 351 14.8 102440 73
2004-06-28 07:04:25 51°16.6 2°53.12 16.3 345 14.8 102440 73
2004-06-28 07:04:29 51°16.613 2°53.11 14.5 345 14.8 102430 73
2004-06-28 07:04:34 51°16.629 2°53.099 15.3 347 14.8 102430 73
2004-06-28 07:04:39 51°16.646 2°53.088 15 345 14.8 102420 72
2004-06-28 07:04:44 51°16.662 2°53.076 14.3 351 14.8 102420 72
2004-06-28 07:04:49 51°16.679 2°53.064 14.8 348 14.8 102420 72
2004-06-28 07:04:54 51°16.695 2°53.051 14.6 345 14.8 102420 72
2004-06-28 07:04:58 51°16.709 2°53.041 13.4 348 14.8 102410 72
2004-06-28 07:05:04 51°16.728 2°53.026 15.4 347 14.8 102410 72
2004-06-28 07:05:09 51°16.745 2°53.013 14.9 351 14.8 102430 72
2004-06-28 07:05:14 51°16.762 2°53.001 14.5 349 14.8 102430 72
2004-06-28 07:05:18 51°16.775 2°52.991 14.4 349 14.7 102430 72
2004-06-28 07:05:24 51°16.795 2°52.976 13.4 350 14.7 102430 72
2004-06-28 07:05:29 51°16.812 2°52.963 14.3 348 14.7 102420 72
2004-06-28 07:05:34 51°16.828 2°52.95 12.5 351 14.7 102420 72
2004-06-28 07:05:38 51°16.842 2°52.94 14 348 14.7 102430 72
2004-06-28 07:05:44 51°16.861 2°52.925 13.9 351 14.7 102430 72
2004-06-28 07:05:49 51°16.878 2°52.912 13.4 350 14.5 102440 72
2004-06-28 07:05:54 51°16.894 2°52.899 15.4 351 14.5 102440 72
2004-06-28 07:05:58 51°16.907 2°52.889 15.7 349 14.7 102430 72
2004-06-28 07:06:04 51°16.928 2°52.874 14.8 346 14.7 102430 72
2004-06-28 07:06:09 51°16.944 2°52.861 15 348 14.7 102440 73
2004-06-28 07:06:14 51°16.961 2°52.848 13.3 344 14.7 102440 73
2004-06-28 07:06:18 51°16.974 2°52.837 13 346 14.7 102430 73
2004-06-28 07:06:22 51°16.988 2°52.828 13.4 347 14.7 102430 73
2004-06-28 07:06:29 51°17.012 2°52.81 14.6 344 14.7 102410 73
2004-06-28 07:06:33 51°17.025 2°52.8 13.1 346 14.7 102410 73
2004-06-28 07:06:39 51°17.045 2°52.783 13.9 348 14.7 102420 73
2004-06-28 07:06:45 51°17.065 2°52.768 13.2 353 14.7 102420 73
2004-06-28 07:06:49 51°17.079 2°52.758 15.2 352 14.7 102430 73
2004-06-28 07:06:54 51°17.096 2°52.745 14.7 352 14.7 102430 73
2004-06-28 07:06:58 51°17.109 2°52.734 14.8 353 14.7 102420 73
2004-06-28 07:07:05 51°17.133 2°52.715 14.6 354 14.7 102420 73
2004-06-28 07:07:09 51°17.146 2°52.705 15 352 14.8 102420 73
2004-06-28 07:07:14 51°17.163 2°52.692 14.2 352 14.8 102420 73
2004-06-28 07:07:18 51°17.176 2°52.682 15.4 350 14.7 102420 73
2004-06-28 07:07:25 51°17.2 2°52.665 15.7 348 14.7 102420 73
2004-06-28 07:07:29 51°17.213 2°52.654 15 354 14.7 102430 72
2004-06-28 07:07:34 51°17.23 2°52.642 13.6 352 14.7 102430 72
2004-06-28 07:07:38 51°17.243 2°52.631 14.7 353 14.7 102420 72
2004-06-28 07:07:44 51°17.264 2°52.616 15 353 14.7 102420 72
2004-06-28 07:07:49 51°17.28 2°52.603 14.6 351 14.7 102420 73
2004-06-28 07:07:54 51°17.297 2°52.59 15.2 354 14.7 102420 73
2004-06-28 07:07:58 51°17.311 2°52.579 14.2 356 14.7 102420 73
2004-06-28 07:08:02 51°17.324 2°52.569 14.9 354 14.7 102420 73
2004-06-28 07:08:09 51°17.348 2°52.55 15.1 352 14.7 102420 73
2004-06-28 07:08:13 51°17.361 2°52.54 15.1 352 14.7 102420 73
2004-06-28 07:08:17 51°17.374 2°52.529 14.9 354 14.7 102430 73
2004-06-28 07:08:25 51°17.401 2°52.507 13.6 353 14.7 102430 73
2004-06-28 07:08:29 51°17.413 2°52.494 12.7 357 14.7 102430 72
2004-06-28 07:08:35 51°17.431 2°52.475 13.9 357 14.7 102430 72
2004-06-28 07:08:38 51°17.44 2°52.465 13.6 352 14.7 102420 72
2004-06-28 07:08:45 51°17.46 2°52.439 13.5 358 14.7 102420 72
2004-06-28 07:08:49 51°17.471 2°52.424 14.3 356 14.7 102430 72
2004-06-28 07:08:54 51°17.484 2°52.404 14.3 356 14.7 102430 72
2004-06-28 07:08:59 51°17.498 2°52.385 15.7 358 14.7 102430 72
2004-06-28 07:09:03 51°17.508 2°52.369 14.4 359 14.7 102430 72
2004-06-28 07:09:09 51°17.525 2°52.346 14.7 359 14.7 102420 72
2004-06-28 07:09:14 51°17.538 2°52.326 15.5 1 14.7 102420 72
2004-06-28 07:09:18 51°17.549 2°52.311 16 360 14.7 102420 73
2004-06-28 07:09:22 51°17.559 2°52.294 15 1 14.7 102420 73
2004-06-28 07:09:29 51°17.578 2°52.267 15.6   14.7 102440 73
2004-06-28 07:09:33 51°17.588 2°52.25 14.7 2 14.7 102440 73
2004-06-28 07:09:39 51°17.603 2°52.225 14.3 3 14.7 102420 72
2004-06-28 07:09:45 51°17.618 2°52.2 15.4 3 14.7 102420 72
2004-06-28 07:09:49 51°17.627 2°52.182 14.7 2 14.6 102420 72
2004-06-28 07:09:54 51°17.639 2°52.161 14.8 5 14.6 102420 72
2004-06-28 07:09:59 51°17.651 2°52.139 14.2 5 14.6 102420 71
2004-06-28 07:10:05 51°17.665 2°52.113 15.2 4 14.6 102420 71
2004-06-28 07:10:09 51°17.675 2°52.096 15.4 6 14.6 102420 71
2004-06-28 07:10:14 51°17.687 2°52.074 15 4 14.6 102420 71
2004-06-28 07:10:18 51°17.697 2°52.057 13.8 358 14.6 102430 72
2004-06-28 07:10:25 51°17.713 2°52.027 14.7 4 14.6 102430 72
2004-06-28 07:10:29 51°17.723 2°52.009 15.7 7 14.6 102410 72
2004-06-28 07:10:34 51°17.735 2°51.987 14   14.6 102410 72
2004-06-28 07:10:39 51°17.747 2°51.966 14.4 3 14.7 102410 73
2004-06-28 07:10:45 51°17.761 2°51.94 14.2 1 14.7 102410 73
2004-06-28 07:10:49 51°17.771 2°51.923 15.2   14.7 102440 73
2004-06-28 07:10:54 51°17.783 2°51.901 15.8 1 14.7 102440 73
2004-06-28 07:10:58 51°17.792 2°51.884 15.3 359 14.7 102420 73
2004-06-28 07:11:05 51°17.809 2°51.854 14.9 1 14.7 102420 73
2004-06-28 07:11:09 51°17.819 2°51.837 15.1 2 14.7 102430 73
2004-06-28 07:11:14 51°17.831 2°51.816 14.6 2 14.7 102430 73
2004-06-28 07:11:19 51°17.842 2°51.794 14.9 1 14.6 102420 72
2004-06-28 07:11:23 51°17.852 2°51.777 14.8 2 14.6 102420 72
2004-06-28 07:11:29 51°17.866 2°51.752 14.9 1 14.6 102430 72
2004-06-28 07:11:34 51°17.878 2°51.731 15.1 359 14.6 102430 72
2004-06-28 07:11:39 51°17.891 2°51.709 14.9 359 14.6 102420 72
2004-06-28 07:11:45 51°17.905 2°51.684 15 3 14.6 102420 72
2004-06-28 07:11:49 51°17.915 2°51.667 15.2 2 14.6 102440 72
2004-06-28 07:11:54 51°17.927 2°51.646 16 2 14.6 102440 72
2004-06-28 07:11:58 51°17.937 2°51.629 14.4 1 14.6 102430 72
2004-06-28 07:12:05 51°17.954 2°51.599 15.2 2 14.6 102430 72
2004-06-28 07:12:09 51°17.964 2°51.582 14.9 1 14.6 102420 72
2004-06-28 07:12:14 51°17.976 2°51.561 14.8 1 14.6 102420 72
2004-06-28 07:12:18 51°17.985 2°51.544 15.3 1 14.6 102410 72
2004-06-28 07:12:25 51°18.002 2°51.515 15.3 359 14.6 102410 72
2004-06-28 07:12:29 51°18.012 2°51.497 16 359 14.6 102430 72
2004-06-28 07:12:34 51°18.024 2°51.476 15.7   14.6 102430 72
2004-06-28 07:12:38 51°18.034 2°51.459 15.5 359 14.6 102420 72
2004-06-28 07:12:45 51°18.051 2°51.429 15.2 1 14.6 102420 72
2004-06-28 07:12:49 51°18.06 2°51.412 15.4 359 14.6 102430 72
2004-06-28 07:12:54 51°18.072 2°51.39 14.6 360 14.6 102430 72
2004-06-28 07:12:58 51°18.082 2°51.373 14.8 1 14.6 102420 73
2004-06-28 07:13:03 51°18.093 2°51.351 14.7 360 14.6 102420 73
2004-06-28 07:13:09 51°18.107 2°51.324 14.8 1 14.6 102430 73
2004-06-28 07:13:13 51°18.116 2°51.306 14.5 358 14.6 102430 73
2004-06-28 07:13:19 51°18.13 2°51.279 14.4 1 14.6 102420 73
2004-06-28 07:13:25 51°18.144 2°51.253 14.2 359 14.6 102420 73
2004-06-28 07:13:29 51°18.154 2°51.236 16.3 1 14.6 102430 73
2004-06-28 07:13:34 51°18.165 2°51.214 14.8 1 14.6 102430 73
2004-06-28 07:13:39 51°18.177 2°51.193 15.7 2 14.6 102430 73
2004-06-28 07:13:45 51°18.19 2°51.167 15 2 14.6 102430 73
2004-06-28 07:13:49 51°18.199 2°51.149 15.2 1 14.6 102430 73
2004-06-28 07:13:53 51°18.208 2°51.131 15.2   14.6 102430 73
2004-06-28 07:13:58 51°18.218 2°51.108 14.7   14.6 102410 73
2004-06-28 07:14:05 51°18.234 2°51.075 14.8 1 14.6 102410 73
2004-06-28 07:14:09 51°18.242 2°51.057 15 359 14.6 102420 73
2004-06-28 07:14:15 51°18.255 2°51.03 15.8 1 14.6 102420 73
2004-06-28 07:14:18 51°18.261 2°51.016 15.3 2 14.6 102430 73
2004-06-28 07:14:25 51°18.276 2°50.984 15.5 359 14.6 102430 73
2004-06-28 07:14:29 51°18.285 2°50.966 14.6 360 14.6 102430 73
2004-06-28 07:14:34 51°18.296 2°50.943 14.3   14.6 102430 73
2004-06-28 07:14:38 51°18.304 2°50.925 13.7 1 14.6 102420 73
2004-06-28 07:14:45 51°18.32 2°50.892 13.6 357 14.6 102420 73
2004-06-28 07:14:49 51°18.328 2°50.874 15.5 1 14.5 102420 73
2004-06-28 07:14:54 51°18.339 2°50.851 14.9 2 14.5 102420 73
2004-06-28 07:14:58 51°18.348 2°50.833 14.8 3 14.5 102430 73
2004-06-28 07:15:02 51°18.357 2°50.815 15 2 14.5 102430 73
2004-06-28 07:15:09 51°18.372 2°50.783 14.5   14.5 102440 73
2004-06-28 07:15:13 51°18.381 2°50.764 15.7 3 14.5 102440 73
2004-06-28 07:15:17 51°18.389 2°50.746 15.9 360 14.5 102440 74
2004-06-28 07:15:25 51°18.407 2°50.709 14.8   14.5 102440 74
2004-06-28 07:15:29 51°18.415 2°50.691 14.7 1 14.5 102430 74
2004-06-28 07:15:34 51°18.426 2°50.668 14.3   14.5 102430 74
2004-06-28 07:15:38 51°18.435 2°50.649 13.9 2 14.5 102430 74
2004-06-28 07:15:45 51°18.45 2°50.617 15.4 359 14.5 102430 74
2004-06-28 07:15:49 51°18.458 2°50.598 13.7 3 14.5 102430 74
2004-06-28 07:15:54 51°18.469 2°50.575 13.2 3 14.5 102430 74
2004-06-28 07:15:59 51°18.48 2°50.553 15.2 1 14.5 102430 74
2004-06-28 07:16:03 51°18.489 2°50.534 13.5 2 14.5 102430 74
2004-06-28 07:16:09 51°18.502 2°50.507 14.7 2 14.5 102430 74
2004-06-28 07:16:14 51°18.513 2°50.484 14.7 3 14.5 102430 74
2004-06-28 07:16:18 51°18.521 2°50.466 14.1 2 14.6 102430 75
2004-06-28 07:16:22 51°18.53 2°50.448 14.9 2 14.6 102430 75
2004-06-28 07:16:29 51°18.545 2°50.416 14.8   14.6 102440 75
2004-06-28 07:16:33 51°18.554 2°50.397 14.1 359 14.6 102440 75
2004-06-28 07:16:39 51°18.567 2°50.37 14.4 2 14.6 102430 74
2004-06-28 07:16:45 51°18.579 2°50.343 14.2 3 14.6 102430 74
2004-06-28 07:16:49 51°18.588 2°50.325 14.2 5 14.5 102420 74
2004-06-28 07:16:54 51°18.599 2°50.302 13.4 3 14.5 102420 74
2004-06-28 07:16:58 51°18.607 2°50.284 15.1 2 14.5 102430 74
2004-06-28 07:17:05 51°18.622 2°50.252 15 3 14.5 102430 74
2004-06-28 07:17:09 51°18.63 2°50.234 14.3 2 14.5 102430 74
2004-06-28 07:17:14 51°18.641 2°50.211 14.8 1 14.5 102430 74
2004-06-28 07:17:18 51°18.65 2°50.192 14.6 359 14.5 102430 74
2004-06-28 07:17:25 51°18.665 2°50.161 14.8 1 14.5 102430 74
2004-06-28 07:17:29 51°18.674 2°50.143 14.9 1 14.5 102430 74
2004-06-28 07:17:34 51°18.684 2°50.12 14.6 1 14.5 102430 74
2004-06-28 07:17:39 51°18.695 2°50.097 13.9 1 14.5 102430 74
2004-06-28 07:17:45 51°18.707 2°50.07 14.3 1 14.5 102430 74
2004-06-28 07:17:49 51°18.716 2°50.051 13.6 3 14.5 102430 74
2004-06-28 07:17:54 51°18.726 2°50.028 13.7 359 14.5 102430 74
2004-06-28 07:17:58 51°18.735 2°50.01 13.3 360 14.5 102430 74
2004-06-28 07:18:05 51°18.75 2°49.978 14.1 357 14.5 102430 74
2004-06-28 07:18:09 51°18.759 2°49.959 13.2 1 14.5 102440 73
2004-06-28 07:18:14 51°18.769 2°49.936 14.1 1 14.5 102440 73
2004-06-28 07:18:17 51°18.775 2°49.922 13.5 357 14.5 102440 74
2004-06-28 07:18:25 51°18.792 2°49.886 14.4 1 14.5 102440 74
2004-06-28 07:18:29 51°18.801 2°49.867 14.9 1 14.5 102440 74
2004-06-28 07:18:35 51°18.814 2°49.84 15 359 14.5 102440 74
2004-06-28 07:18:38 51°18.82 2°49.827 14.5 1 14.5 102430 74
2004-06-28 07:18:45 51°18.835 2°49.795 14.1 358 14.5 102430 74
2004-06-28 07:18:49 51°18.843 2°49.777 14.6 359 14.5 102440 74
2004-06-28 07:18:54 51°18.854 2°49.754 13.8 356 14.5 102440 74
2004-06-28 07:18:58 51°18.862 2°49.736 14.1 358 14.5 102430 74
2004-06-28 07:19:02 51°18.87 2°49.718 14.1 358 14.5 102430 74
2004-06-28 07:19:09 51°18.885 2°49.687 14.1 357 14.5 102420 74
2004-06-28 07:19:13 51°18.894 2°49.669 13.1 5 14.5 102420 74
2004-06-28 07:19:19 51°18.907 2°49.642 13 2 14.5 102430 74
2004-06-28 07:19:25 51°18.92 2°49.616 14.5 3 14.5 102430 74
2004-06-28 07:19:29 51°18.928 2°49.598 14.3 356 14.5 102430 74
2004-06-28 07:19:34 51°18.938 2°49.575 13.6 360 14.5 102430 74
2004-06-28 07:19:38 51°18.946 2°49.557 13.9 359 14.5 102440 74
2004-06-28 07:19:45 51°18.961 2°49.526 13.6 354 14.5 102440 74
2004-06-28 07:19:49 51°18.97 2°49.508 13.9 357 14.5 102440 75
2004-06-28 07:19:54 51°18.98 2°49.486 14.3 3 14.5 102440 75
2004-06-28 07:19:58 51°18.989 2°49.468 12.8 358 14.5 102440 75
2004-06-28 07:20:05 51°19.003 2°49.436 14.8 357 14.5 102440 75
2004-06-28 07:20:09 51°19.011 2°49.418 13.9 357 14.6 102440 75
2004-06-28 07:20:14 51°19.022 2°49.396 14.3 357 14.6 102440 75
2004-06-28 07:20:18 51°19.031 2°49.378 13.5 356 14.6 102440 75
2004-06-28 07:20:25 51°19.046 2°49.346 14 359 14.6 102440 75
2004-06-28 07:20:29 51°19.054 2°49.328 14.4 358 14.6 102440 75
2004-06-28 07:20:33 51°19.062 2°49.309 14.3 358 14.6 102440 75
2004-06-28 07:20:39 51°19.076 2°49.282 14.2 359 14.6 102440 75
2004-06-28 07:20:45 51°19.088 2°49.255 13.7 358 14.6 102440 75
2004-06-28 07:20:49 51°19.097 2°49.237 13.6 360 14.6 102440 75
2004-06-28 07:20:54 51°19.108 2°49.214 13.8 4 14.6 102440 75
2004-06-28 07:20:58 51°19.116 2°49.196 13.4 358 14.6 102430 75
2004-06-28 07:21:05 51°19.131 2°49.164 14.1 6 14.6 102430 75
2004-06-28 07:21:09 51°19.14 2°49.146 14.2 4 14.6 102430 75
2004-06-28 07:21:14 51°19.151 2°49.123 15 358 14.6 102430 75
2004-06-28 07:21:18 51°19.159 2°49.105 13.9 358 14.6 102440 75
2004-06-28 07:21:25 51°19.174 2°49.074 14.2 4 14.6 102440 75
2004-06-28 07:21:29 51°19.183 2°49.055 14.6 5 14.6 102440 75
2004-06-28 07:21:34 51°19.194 2°49.033 14.9 4 14.6 102440 75
2004-06-28 07:21:38 51°19.202 2°49.014 14.9 5 14.6 102440 75
2004-06-28 07:21:45 51°19.217 2°48.983 14.7 4 14.6 102440 75
2004-06-28 07:21:49 51°19.226 2°48.964 13.6 6 14.6 102440 76
2004-06-28 07:21:54 51°19.236 2°48.941 14 7 14.6 102440 76
2004-06-28 07:21:58 51°19.245 2°48.923 14.3 4 14.6 102440 75
2004-06-28 07:22:05 51°19.259 2°48.89 13.8 2 14.6 102440 75
2004-06-28 07:22:09 51°19.266 2°48.871 14.3 3 14.5 102420 74
2004-06-28 07:22:15 51°19.278 2°48.841 15.4 1 14.5 102420 74
2004-06-28 07:22:18 51°19.283 2°48.827 15.2 6 14.5 102450 74
2004-06-28 07:22:25 51°19.295 2°48.792 15.1 4 14.5 102450 74
2004-06-28 07:22:29 51°19.302 2°48.773 13.6 4 14.5 102440 75
2004-06-28 07:22:34 51°19.311 2°48.748 14.7 4 14.5 102440 75
2004-06-28 07:22:39 51°19.32 2°48.723 14.4 7 14.5 102430 74
2004-06-28 07:22:45 51°19.33 2°48.694 14 6 14.5 102430 74
2004-06-28 07:22:49 51°19.337 2°48.675 14.6 6 14.5 102430 74
2004-06-28 07:22:54 51°19.346 2°48.65 14.3 8 14.5 102430 74
2004-06-28 07:22:58 51°19.353 2°48.63 14 6 14.5 102430 74
2004-06-28 07:23:05 51°19.365 2°48.596 15 9 14.5 102430 74
2004-06-28 07:23:09 51°19.372 2°48.576 15.3 6 14.5 102440 74
2004-06-28 07:23:14 51°19.381 2°48.551 14.8 9 14.5 102440 74
2004-06-28 07:23:18 51°19.388 2°48.532 15 7 14.5 102430 74
2004-06-28 07:23:25 51°19.401 2°48.498 14.3 7 14.5 102430 74
2004-06-28 07:23:29 51°19.408 2°48.478 14.5 8 14.5 102440 74
2004-06-28 07:23:33 51°19.415 2°48.459 14.4 7 14.5 102440 74
2004-06-28 07:23:39 51°19.425 2°48.429 14.7 3 14.5 102430 74
2004-06-28 07:23:45 51°19.436 2°48.4 14.8 7 14.5 102430 74
2004-06-28 07:23:49 51°19.442 2°48.38 15.3 8 14.5 102430 74
2004-06-28 07:23:54 51°19.45 2°48.355 15 8 14.5 102430 74
2004-06-28 07:23:57 51°19.455 2°48.339 14.3 9 14.5 102440 74
2004-06-28 07:24:05 51°19.467 2°48.299 15.6 11 14.5 102440 74
2004-06-28 07:24:09 51°19.473 2°48.278 14.6 11 14.5 102440 74
2004-06-28 07:24:14 51°19.481 2°48.253 15.7 14 14.5 102440 74
2004-06-28 07:24:19 51°19.488 2°48.227 14.5 12 14.5 102440 74
2004-06-28 07:24:25 51°19.497 2°48.197 15.6 7 14.5 102440 74
2004-06-28 07:24:29 51°19.503 2°48.176 15.1 4 14.5 102430 74
2004-06-28 07:24:34 51°19.51 2°48.151 15.2 5 14.5 102430 74
2004-06-28 07:24:38 51°19.516 2°48.131 14.9 6 14.5 102430 74
2004-06-28 07:24:44 51°19.525 2°48.1 15.1 7 14.5 102430 74
2004-06-28 07:24:49 51°19.532 2°48.074 15.2 6 14.5 102430 75
2004-06-28 07:24:54 51°19.54 2°48.049 15.1 7 14.5 102430 75
2004-06-28 07:24:58 51°19.546 2°48.029 14.1 3 14.5 102430 75
2004-06-28 07:25:05 51°19.556 2°47.993 14.2 4 14.5 102430 75
2004-06-28 07:25:09 51°19.563 2°47.973 15.2 9 14.5 102440 74
2004-06-28 07:25:13 51°19.568 2°47.952 15.5 4 14.5 102440 74
2004-06-28 07:25:19 51°19.578 2°47.922 15.2 6 14.5 102420 74
2004-06-28 07:25:25 51°19.587 2°47.891 15.3 11 14.5 102420 74
2004-06-28 07:25:29 51°19.593 2°47.871 15.1 4 14.5 102440 75
2004-06-28 07:25:34 51°19.6 2°47.845 14.8 8 14.5 102440 75
2004-06-28 07:25:38 51°19.606 2°47.825 15.6 10 14.5 102440 74
2004-06-28 07:25:44 51°19.615 2°47.794 15.3 7 14.5 102440 74
2004-06-28 07:25:49 51°19.622 2°47.769 14.7 8 14.5 102440 75
2004-06-28 07:25:53 51°19.628 2°47.748 15.4 6 14.5 102440 75
2004-06-28 07:25:59 51°19.637 2°47.718 15.7 5 14.5 102420 75
2004-06-28 07:26:04 51°19.645 2°47.692 15.1 10 14.5 102420 75
2004-06-28 07:26:09 51°19.652 2°47.667 14.7 7 14.5 102450 74
2004-06-28 07:26:14 51°19.66 2°47.641 15.4 9 14.5 102450 74
2004-06-28 07:26:18 51°19.666 2°47.621 15.6 7 14.5 102440 74
2004-06-28 07:26:24 51°19.676 2°47.591 15.6 7 14.5 102440 74
2004-06-28 07:26:29 51°19.683 2°47.565 16.8 8 14.5 102430 74
2004-06-28 07:26:33 51°19.689 2°47.545 15.9 6 14.5 102430 74
2004-06-28 07:26:39 51°19.698 2°47.515 15.4 9 14.5 102440 74
2004-06-28 07:26:45 51°19.707 2°47.485 15.5 8 14.5 102440 74
2004-06-28 07:26:49 51°19.713 2°47.465 14.3 5 14.5 102430 74
2004-06-28 07:26:54 51°19.721 2°47.44 15.7 8 14.5 102430 74
2004-06-28 07:26:59 51°19.728 2°47.414 14.8 7 14.5 102430 75
2004-06-28 07:27:03 51°19.734 2°47.393 15.1 9 14.5 102430 75
2004-06-28 07:27:09 51°19.742 2°47.362 14.2 14 14.4 102440 74
2004-06-28 07:27:14 51°19.748 2°47.337 14.4 11 14.4 102440 74
2004-06-28 07:27:19 51°19.754 2°47.311 14.1 13 14.5 102440 75
2004-06-28 07:27:25 51°19.762 2°47.279 15.9 14 14.5 102440 75
2004-06-28 07:27:29 51°19.767 2°47.259 14.9 14 14.5 102450 75
2004-06-28 07:27:34 51°19.773 2°47.233 13.6 10 14.5 102450 75
2004-06-28 07:27:39 51°19.78 2°47.207 14.5 10 14.5 102450 75
2004-06-28 07:27:45 51°19.787 2°47.176 15.1 9 14.5 102450 75
2004-06-28 07:27:49 51°19.793 2°47.155 14.7 11 14.5 102440 75
2004-06-28 07:27:54 51°19.799 2°47.129 14.8 12 14.5 102440 75
2004-06-28 07:27:58 51°19.803 2°47.108 14.4 11 14.5 102450 75
2004-06-28 07:28:05 51°19.812 2°47.071 14.5 12 14.5 102450 75
2004-06-28 07:28:09 51°19.817 2°47.051 15 9 14.5 102440 75
2004-06-28 07:28:14 51°19.823 2°47.025 15.5 10 14.5 102440 75
2004-06-28 07:28:19 51°19.829 2°46.999 13.2 8 14.5 102440 75
2004-06-28 07:28:23 51°19.834 2°46.978 14.3 2 14.5 102440 75
2004-06-28 07:28:29 51°19.841 2°46.947 14.3 11 14.5 102440 75
2004-06-28 07:28:34 51°19.847 2°46.921 14.5 10 14.5 102440 75
2004-06-28 07:28:38 51°19.852 2°46.9 14.6 9 14.5 102440 75
2004-06-28 07:28:45 51°19.861 2°46.863 13.6 10 14.5 102440 75
2004-06-28 07:28:49 51°19.865 2°46.842 14 8 14.5 102450 76
2004-06-28 07:28:54 51°19.871 2°46.816 14.2 10 14.5 102450 76
2004-06-28 07:28:59 51°19.877 2°46.79 14.1 11 14.5 102440 76
2004-06-28 07:29:04 51°19.883 2°46.764 14.6 9 14.5 102440 76
2004-06-28 07:29:08 51°19.888 2°46.743 15.3 8 14.5 102440 75
2004-06-28 07:29:14 51°19.896 2°46.711 15.3 8 14.5 102440 75
2004-06-28 07:29:18 51°19.9 2°46.69 16 6 14.5 102440 75
2004-06-28 07:29:24 51°19.908 2°46.658 15 5 14.5 102440 75
2004-06-28 07:29:28 51°19.913 2°46.637 14.7 7 14.5 102450 75
2004-06-28 07:29:34 51°19.92 2°46.606 14.9 7 14.5 102450 75
2004-06-28 07:29:38 51°19.925 2°46.584 14.5 10 14.5 102450 75
2004-06-28 07:29:44 51°19.932 2°46.553 13.5 8 14.5 102450 75
2004-06-28 07:29:49 51°19.938 2°46.527 14.6 9 14.5 102420 75
2004-06-28 07:29:54 51°19.944 2°46.501 13.9 6 14.5 102420 75
2004-06-28 07:29:58 51°19.949 2°46.48 14.4 8 14.5 102440 75
2004-06-28 07:30:04 51°19.956 2°46.449 14.9 9 14.5 102440 75
2004-06-28 07:30:08 51°19.961 2°46.428 15.1 7 14.5 102450 75
2004-06-28 07:30:14 51°19.968 2°46.396 15.2 11 14.5 102450 75
2004-06-28 07:30:18 51°19.973 2°46.376 14 8 14.5 102440 75
2004-06-28 07:30:24 51°19.98 2°46.344 16 9 14.5 102440 75
2004-06-28 07:30:28 51°19.985 2°46.323 15.9 11 14.5 102420 76
2004-06-28 07:30:34 51°19.992 2°46.291 15.4 10 14.5 102420 76
2004-06-28 07:30:38 51°19.997 2°46.271 16 9 14.5 102440 75
2004-06-28 07:30:44 51°20.004 2°46.239 15.2 9 14.5 102440 75
2004-06-28 07:30:49 51°20.011 2°46.213 15.4 9 14.5 102450 76
2004-06-28 07:30:53 51°20.016 2°46.192 15.2 9 14.5 102450 76
2004-06-28 07:30:58 51°20.022 2°46.167 14.2 9 14.5 102430 75
2004-06-28 07:31:05 51°20.03 2°46.13 15.3 9 14.5 102430 75
2004-06-28 07:31:09 51°20.035 2°46.11 15.6 10 14.4 102420 75
2004-06-28 07:31:14 51°20.041 2°46.084 14.2 9 14.4 102420 75
2004-06-28 07:31:19 51°20.047 2°46.058 14.4 11 14.5 102420 75
2004-06-28 07:31:25 51°20.055 2°46.027 13.8 9 14.5 102420 75
2004-06-28 07:31:29 51°20.06 2°46.007 14.7 11 14.4 102440 75
2004-06-28 07:31:30 51°20.061 2°46.002 15.4 13 14.4 102440 75
2004-06-28 07:31:39 51°20.072 2°45.955 14.9 10 14.4 102440 75
2004-06-28 07:31:45 51°20.08 2°45.925 14.9 11 14.4 102440 75
2004-06-28 07:31:49 51°20.085 2°45.904 14.9 12 14.5 102430 75
2004-06-28 07:31:53 51°20.09 2°45.884 14.4 12 14.5 102430 75
2004-06-28 07:31:58 51°20.096 2°45.858 15.2 11 14.5 102440 75
2004-06-28 07:32:05 51°20.105 2°45.822 14.8 11 14.5 102440 75
2004-06-28 07:32:09 51°20.11 2°45.801 14 9 14.4 102430 75
2004-06-28 07:32:14 51°20.116 2°45.775 14.1 13 14.4 102430 75
2004-06-28 07:32:18 51°20.121 2°45.754 14.7 9 14.5 102430 75
2004-06-28 07:32:24 51°20.129 2°45.723 14.4 8 14.5 102430 75
2004-06-28 07:32:29 51°20.135 2°45.698 14.7 11 14.4 102430 74
2004-06-28 07:32:34 51°20.142 2°45.672 15.2 11 14.4 102430 74
2004-06-28 07:32:39 51°20.148 2°45.647 14.8 9 14.4 102450 74
2004-06-28 07:32:43 51°20.152 2°45.626 14.7 10 14.4 102450 74
2004-06-28 07:32:49 51°20.157 2°45.594 14.7 13 14.4 102430 75
2004-06-28 07:32:54 51°20.161 2°45.567 15.3 13 14.4 102430 75
2004-06-28 07:32:59 51°20.164 2°45.541 15 16 14.5 102450 75
2004-06-28 07:33:04 51°20.167 2°45.514 14.3 17 14.5 102450 75
2004-06-28 07:33:09 51°20.17 2°45.487 14.8 18 14.5 102440 75
2004-06-28 07:33:14 51°20.173 2°45.461 14.7 18 14.5 102440 75
2004-06-28 07:33:18 51°20.176 2°45.439 14.2 14 14.5 102440 75
2004-06-28 07:33:25 51°20.179 2°45.401 14.1 18 14.5 102440 75
2004-06-28 07:33:29 51°20.181 2°45.379 13.6 20 14.5 102440 75
2004-06-28 07:33:34 51°20.184 2°45.352 15.2 18 14.5 102440 75
2004-06-28 07:33:37 51°20.186 2°45.336 14.5 18 14.5 102430 75
2004-06-28 07:33:44 51°20.19 2°45.298 14.6 19 14.5 102430 75
2004-06-28 07:33:49 51°20.193 2°45.27 13.8 16 14.5 102430 76
2004-06-28 07:33:54 51°20.196 2°45.244 14.7 19 14.5 102430 76
2004-06-28 07:33:59 51°20.199 2°45.217 14.2 13 14.5 102430 75
2004-06-28 07:34:03 51°20.202 2°45.195 14.5 12 14.5 102430 75
2004-06-28 07:34:09 51°20.205 2°45.163 13.9 13 14.5 102430 75
2004-06-28 07:34:14 51°20.209 2°45.136 14.5 13 14.5 102430 75
2004-06-28 07:34:18 51°20.211 2°45.114 13.4 11 14.5 102430 76
2004-06-28 07:34:24 51°20.215 2°45.082 14.4 13 14.5 102430 76
2004-06-28 07:34:29 51°20.217 2°45.054 15.4 12 14.5 102430 76
2004-06-28 07:34:34 51°20.22 2°45.027 15.4 12 14.5 102430 76
2004-06-28 07:34:38 51°20.223 2°45.005 16.2 13 14.5 102440 76
2004-06-28 07:34:44 51°20.227 2°44.973 15.2 12 14.5 102440 76
2004-06-28 07:34:49 51°20.23 2°44.946 14.9 12 14.5 102430 75
2004-06-28 07:34:54 51°20.233 2°44.919 14.6 13 14.5 102430 75
2004-06-28 07:34:59 51°20.236 2°44.892 13.9 13 14.5 102420 75
2004-06-28 07:35:04 51°20.239 2°44.865 14.4 11 14.5 102420 75
2004-06-28 07:35:08 51°20.241 2°44.844 14 11 14.5 102420 75
2004-06-28 07:35:14 51°20.245 2°44.811 14.6 10 14.5 102420 75
2004-06-28 07:35:18 51°20.248 2°44.79 14 13 14.4 102440 75
2004-06-28 07:35:24 51°20.252 2°44.757 13.5 14 14.4 102440 75
2004-06-28 07:35:29 51°20.255 2°44.73 14.1 16 14.4 102430 74
2004-06-28 07:35:34 51°20.258 2°44.703 13.8 17 14.4 102430 74
2004-06-28 07:35:39 51°20.261 2°44.676 13.7 13 14.4 102430 75
2004-06-28 07:35:44 51°20.264 2°44.648 14.2 15 14.4 102430 75
2004-06-28 07:35:49 51°20.268 2°44.621 14.3 14 14.4 102430 75
2004-06-28 07:35:54 51°20.271 2°44.594 14.5 16 14.4 102430 75
2004-06-28 07:35:58 51°20.273 2°44.572 14.7 11 14.4 102450 75
2004-06-28 07:36:05 51°20.278 2°44.534 15.4 9 14.4 102450 75
2004-06-28 07:36:09 51°20.28 2°44.512 16 11 14.4 102440 75
2004-06-28 07:36:14 51°20.283 2°44.485 15.8 8 14.4 102440 75
2004-06-28 07:36:18 51°20.286 2°44.463 15.7 11 14.4 102430 75
2004-06-28 07:36:25 51°20.291 2°44.425 16.2 12 14.4 102430 75
2004-06-28 07:36:28 51°20.293 2°44.409 15.8 12 14.4 102420 75
2004-06-28 07:36:34 51°20.297 2°44.376 16.2 15 14.4 102420 75
2004-06-28 07:36:38 51°20.299 2°44.355 15.4 15 14.4 102420 74
2004-06-28 07:36:44 51°20.303 2°44.322 14.1 18 14.4 102420 74
2004-06-28 07:36:49 51°20.307 2°44.295 13.3 12 14.4 102410 74
2004-06-28 07:36:54 51°20.31 2°44.267 15.1 11 14.4 102410 74
2004-06-28 07:36:58 51°20.313 2°44.246 14.8 14 14.4 102430 75
2004-06-28 07:37:04 51°20.317 2°44.213 14.7 14 14.4 102430 75
2004-06-28 07:37:09 51°20.321 2°44.186 15.7 15 14.4 102420 75
2004-06-28 07:37:14 51°20.324 2°44.159 14.7 15 14.4 102420 75
2004-06-28 07:37:18 51°20.327 2°44.137 14.1 14 14.5 102440 75
2004-06-28 07:37:24 51°20.331 2°44.104 15.8 14 14.5 102440 75
2004-06-28 07:37:29 51°20.334 2°44.077 14.6 13 14.4 102430 75
2004-06-28 07:37:34 51°20.337 2°44.05 15.7 14 14.4 102430 75
2004-06-28 07:37:38 51°20.34 2°44.029 14.8 17 14.4 102420 74
2004-06-28 07:37:45 51°20.345 2°43.991 14.7 16 14.4 102420 74
2004-06-28 07:37:49 51°20.348 2°43.97 14.2 11 14.4 102430 74
2004-06-28 07:37:55 51°20.352 2°43.938 14.2 16 14.4 102430 74
2004-06-28 07:37:59 51°20.354 2°43.916 13.2 15 14.4 102420 74
2004-06-28 07:38:03 51°20.357 2°43.895 13.6 18 14.4 102420 74
2004-06-28 07:38:09 51°20.361 2°43.863 14.2 14 14.4 102430 74
2004-06-28 07:38:14 51°20.364 2°43.836 13.1 16 14.4 102430 74
2004-06-28 07:38:19 51°20.367 2°43.81 14.2 11 14.4 102430 75
2004-06-28 07:38:23 51°20.37 2°43.788 14.8 12 14.4 102430 75
2004-06-28 07:38:29 51°20.375 2°43.756 15.5 14 14.4 102440 74
2004-06-28 07:38:33 51°20.377 2°43.734 14.6 15 14.4 102440 74
2004-06-28 07:38:39 51°20.381 2°43.702 14.9 13 14.4 102420 75
2004-06-28 07:38:45 51°20.385 2°43.67 14 11 14.4 102420 75
2004-06-28 07:38:49 51°20.388 2°43.649 14.7 13 14.4 102430 75
2004-06-28 07:38:55 51°20.392 2°43.617 14.6 13 14.4 102430 75
2004-06-28 07:38:59 51°20.395 2°43.595 14.3 12 14.4 102420 74
2004-06-28 07:39:05 51°20.399 2°43.563 14.3 9 14.4 102420 74
2004-06-28 07:39:09 51°20.401 2°43.541 14 12 14.4 102430 74
2004-06-28 07:39:15 51°20.406 2°43.508 14 11 14.4 102430 74
2004-06-28 07:39:19 51°20.408 2°43.486 13.8 17 14.4 102430 74
2004-06-28 07:39:25 51°20.412 2°43.454 12.5 10 14.4 102430 74
2004-06-28 07:39:29 51°20.415 2°43.432 13.4 17 14.4 102430 73
2004-06-28 07:39:35 51°20.419 2°43.399 12.6 13 14.4 102430 73
2004-06-28 07:39:39 51°20.421 2°43.378 13.7 11 14.4 102450 74
2004-06-28 07:39:45 51°20.426 2°43.345 14.6 15 14.4 102450 74
2004-06-28 07:39:49 51°20.428 2°43.323 14.2 16 14.4 102440 74
2004-06-28 07:39:53 51°20.431 2°43.302 14.3 18 14.4 102440 74
2004-06-28 07:39:59 51°20.435 2°43.269 14.9 11 14.4 102440 74
2004-06-28 07:40:05 51°20.439 2°43.237 15.7 14 14.4 102440 74
2004-06-28 07:40:09 51°20.441 2°43.215 14 17 14.4 102440 74
2004-06-28 07:40:15 51°20.446 2°43.182 14.5 15 14.4 102440 74
2004-06-28 07:40:19 51°20.448 2°43.161 15 17 14.4 102430 74
2004-06-28 07:40:25 51°20.452 2°43.128 15 17 14.4 102430 74
2004-06-28 07:40:29 51°20.455 2°43.106 15.4 17 14.4 102430 74
2004-06-28 07:40:35 51°20.459 2°43.073 14.9 19 14.4 102430 74
2004-06-28 07:40:39 51°20.461 2°43.052 15 19 14.4 102430 73
2004-06-28 07:40:45 51°20.465 2°43.019 15.2 17 14.4 102430 73
2004-06-28 07:40:49 51°20.468 2°42.997 14.4 15 14.4 102440 74
2004-06-28 07:40:55 51°20.472 2°42.964 14 18 14.4 102440 74
2004-06-28 07:40:57 51°20.473 2°42.954 13.5 18 14.4 102430 73
2004-06-28 07:41:05 51°20.478 2°42.91 13.7 17 14.4 102430 73
2004-06-28 07:41:09 51°20.481 2°42.888 13.9 13 14.4 102440 74
2004-06-28 07:41:15 51°20.485 2°42.855 14.5 17 14.4 102440 74
2004-06-28 07:41:19 51°20.487 2°42.833 15.6 16 14.4 102440 74
2004-06-28 07:41:25 51°20.491 2°42.801 15 17 14.4 102440 74
2004-06-28 07:41:29 51°20.494 2°42.779 14.5 17 14.4 102440 74
2004-06-28 07:41:35 51°20.498 2°42.746 14.7 14 14.4 102440 74
2004-06-28 07:41:39 51°20.5 2°42.724 14.5 18 14.4 102430 74
2004-06-28 07:41:45 51°20.503 2°42.692 15 15 14.4 102430 74
2004-06-28 07:41:49 51°20.506 2°42.67 14.5 18 14.4 102430 74
2004-06-28 07:41:55 51°20.51 2°42.638 14.2 15 14.4 102430 74
2004-06-28 07:41:57 51°20.511 2°42.627 15.2 16 14.4 102440 74
2004-06-28 07:42:05 51°20.516 2°42.584 14.1 15 14.4 102440 74
2004-06-28 07:42:09 51°20.518 2°42.563 14.8 15 14.4 102430 73
2004-06-28 07:42:15 51°20.522 2°42.531 14.9 17 14.4 102430 73
2004-06-28 07:42:19 51°20.525 2°42.509 14 15 14.4 102430 73
2004-06-28 07:42:25 51°20.529 2°42.477 14.1 16 14.4 102430 73
2004-06-28 07:42:29 51°20.531 2°42.455 14.5 16 14.4 102430 74
2004-06-28 07:42:35 51°20.535 2°42.423 14.3 18 14.4 102430 74
2004-06-28 07:42:39 51°20.538 2°42.402 15.2 16 14.4 102440 74
2004-06-28 07:42:45 51°20.541 2°42.369 14.8 17 14.4 102440 74
2004-06-28 07:42:49 51°20.544 2°42.348 15.3 16 14.4 102440 73
2004-06-28 07:42:55 51°20.547 2°42.315 14.2 20 14.4 102440 73
2004-06-28 07:42:57 51°20.549 2°42.305 14.5 17 14.4 102450 74
2004-06-28 07:43:05 51°20.553 2°42.261 14.3 16 14.4 102450 74
2004-06-28 07:43:09 51°20.556 2°42.24 14.2 13 14.4 102430 73
2004-06-28 07:43:15 51°20.559 2°42.207 15.2 15 14.4 102430 73
2004-06-28 07:43:19 51°20.562 2°42.186 15.1 17 14.4 102440 74
2004-06-28 07:43:25 51°20.565 2°42.154 15.1 20 14.4 102440 74
2004-06-28 07:43:29 51°20.567 2°42.132 15.2 21 14.4 102430 74
2004-06-28 07:43:35 51°20.57 2°42.1 14.6 22 14.4 102430 74
2004-06-28 07:43:39 51°20.571 2°42.078 13.9 18 14.4 102440 74
2004-06-28 07:43:45 51°20.575 2°42.046 14.4 19 14.4 102440 74
2004-06-28 07:43:49 51°20.577 2°42.025 14.5 21 14.4 102430 74
2004-06-28 07:43:54 51°20.579 2°41.998 14.7 20 14.4 102430 74
2004-06-28 07:43:59 51°20.581 2°41.972 13.6 20 14.4 102440 74
2004-06-28 07:44:05 51°20.583 2°41.94 14.8 16 14.4 102440 74
2004-06-28 07:44:09 51°20.586 2°41.918 14.9 17 14.5 102440 74
2004-06-28 07:44:15 51°20.588 2°41.886 14.8 21 14.5 102440 74
2004-06-28 07:44:19 51°20.59 2°41.865 13.6 17 14.4 102430 74
2004-06-28 07:44:23 51°20.592 2°41.843 14.3 20 14.4 102430 74
2004-06-28 07:44:29 51°20.594 2°41.811 13.7 16 14.4 102430 74
2004-06-28 07:44:35 51°20.597 2°41.778 14.7 23 14.4 102430 74
2004-06-28 07:44:39 51°20.599 2°41.757 14.4 13 14.5 102440 75
2004-06-28 07:44:45 51°20.601 2°41.724 15.6 16 14.5 102440 75
2004-06-28 07:44:49 51°20.603 2°41.702 15.9 16 14.5 102440 75
2004-06-28 07:44:55 51°20.606 2°41.67 15.8 18 14.5 102440 75
2004-06-28 07:44:59 51°20.608 2°41.648 15.1 18 14.5 102440 75
2004-06-28 07:45:05 51°20.611 2°41.616 14.1 19 14.5 102440 75
2004-06-28 07:45:09 51°20.613 2°41.594 14.7 22 14.5 102430 75
2004-06-28 07:45:15 51°20.616 2°41.562 14.7 18 14.5 102430 75
2004-06-28 07:45:19 51°20.617 2°41.54 14.2 21 14.5 102440 75
2004-06-28 07:45:25 51°20.62 2°41.508 14.5 20 14.5 102440 75
2004-06-28 07:45:29 51°20.622 2°41.486 14.5 20 14.4 102440 74
2004-06-28 07:45:35 51°20.625 2°41.454 15.8 22 14.4 102440 74
2004-06-28 07:45:39 51°20.627 2°41.432 15 22 14.4 102440 74
2004-06-28 07:45:45 51°20.629 2°41.4 14.7 23 14.4 102440 74
2004-06-28 07:45:49 51°20.63 2°41.378 14.8 19 14.4 102440 74
2004-06-28 07:45:54 51°20.633 2°41.351 15.1 23 14.4 102440 74
2004-06-28 07:45:59 51°20.635 2°41.324 14.5 23 14.4 102440 74
2004-06-28 07:46:05 51°20.638 2°41.291 13.3 20 14.4 102440 74
2004-06-28 07:46:09 51°20.64 2°41.269 14.2 23 14.4 102440 74
2004-06-28 07:46:15 51°20.643 2°41.237 14.8 20 14.4 102440 74
2004-06-28 07:46:19 51°20.644 2°41.215 14.9 19 14.4 102440 74
2004-06-28 07:46:25 51°20.647 2°41.183 14.8 17 14.4 102440 74
2004-06-28 07:46:29 51°20.649 2°41.161 16.2 20 14.4 102450 74
2004-06-28 07:46:35 51°20.652 2°41.128 14.7 18 14.4 102450 74
2004-06-28 07:46:39 51°20.654 2°41.106 15.3 15 14.4 102460 74
2004-06-28 07:46:45 51°20.656 2°41.073 14.7 21 14.4 102460 74
2004-06-28 07:46:49 51°20.659 2°41.052 15.3 18 14.4 102440 74
2004-06-28 07:46:55 51°20.662 2°41.019 14.6 22 14.4 102440 74
2004-06-28 07:46:59 51°20.664 2°40.997 14.8 22 14.4 102440 74
2004-06-28 07:47:03 51°20.665 2°40.975 14.6 15 14.4 102440 74
2004-06-28 07:47:09 51°20.668 2°40.943 14.8 19 14.4 102450 74
2004-06-28 07:47:15 51°20.671 2°40.91 15.6 15 14.4 102450 74
2004-06-28 07:47:19 51°20.673 2°40.888 15.4 18 14.4 102450 74
2004-06-28 07:47:25 51°20.676 2°40.855 14.8 16 14.4 102450 74
2004-06-28 07:47:29 51°20.678 2°40.833 14.9 16 14.4 102450 74
2004-06-28 07:47:35 51°20.681 2°40.801 15.6 14 14.4 102450 74
2004-06-28 07:47:39 51°20.683 2°40.779 13.2 17 14.4 102450 74
2004-06-28 07:47:45 51°20.685 2°40.746 14 20 14.4 102450 74
2004-06-28 07:47:49 51°20.687 2°40.724 14.7 18 14.4 102450 74
2004-06-28 07:47:55 51°20.69 2°40.691 14.5 15 14.4 102450 74
2004-06-28 07:47:59 51°20.691 2°40.669 14.4 14 14.4 102440 74
2004-06-28 07:48:05 51°20.694 2°40.636 15 19 14.4 102440 74
2004-06-28 07:48:09 51°20.695 2°40.614 14.8 15 14.4 102450 74
2004-06-28 07:48:14 51°20.697 2°40.587 15.8 17 14.4 102450 74
2004-06-28 07:48:19 51°20.699 2°40.559 15.1 16 14.4 102460 74
2004-06-28 07:48:25 51°20.702 2°40.527 14.6 20 14.4 102460 74
2004-06-28 07:48:29 51°20.703 2°40.505 14.8 18 14.4 102460 74
2004-06-28 07:48:35 51°20.706 2°40.472 14.3 18 14.4 102460 74
2004-06-28 07:48:39 51°20.707 2°40.45 15.4 16 14.4 102440 73
2004-06-28 07:48:45 51°20.71 2°40.417 15 18 14.4 102440 73
2004-06-28 07:48:49 51°20.711 2°40.395 15.1 16 14.4 102450 74
2004-06-28 07:48:54 51°20.713 2°40.368 15.8 22 14.4 102450 74
2004-06-28 07:48:59 51°20.715 2°40.34 14.3 22 14.4 102450 74
2004-06-28 07:49:05 51°20.717 2°40.308 14.6 23 14.4 102450 74
2004-06-28 07:49:09 51°20.719 2°40.285 14.6 21 14.4 102450 74
2004-06-28 07:49:15 51°20.721 2°40.253 15.3 22 14.4 102450 74
2004-06-28 07:49:19 51°20.722 2°40.23 15.6 23 14.4 102450 74
2004-06-28 07:49:25 51°20.725 2°40.198 15 23 14.4 102450 74
2004-06-28 07:49:29 51°20.727 2°40.176 14 22 14.4 102450 74
2004-06-28 07:49:33 51°20.729 2°40.154 14.5 23 14.4 102450 74
2004-06-28 07:49:37 51°20.73 2°40.132 15 23 14.4 102450 74
2004-06-28 07:49:45 51°20.733 2°40.088 14.2 22 14.4 102450 74
2004-06-28 07:49:49 51°20.734 2°40.066 15.3 23 14.4 102430 74
2004-06-28 07:49:53 51°20.736 2°40.044 14.8 24 14.4 102430 74
2004-06-28 07:49:59 51°20.739 2°40.011 14.7 23 14.4 102450 74
2004-06-28 07:50:03 51°20.74 2°39.989 14 20 14.4 102450 74
2004-06-28 07:50:09 51°20.743 2°39.956 15 17 14.4 102450 74
2004-06-28 07:50:15 51°20.745 2°39.923 14.7 21 14.4 102450 74
2004-06-28 07:50:19 51°20.747 2°39.901 14 19 14.4 102440 74
2004-06-28 07:50:25 51°20.749 2°39.867 14.6 22 14.4 102440 74
2004-06-28 07:50:29 51°20.751 2°39.845 15.3 21 14.4 102430 74
2004-06-28 07:50:35 51°20.753 2°39.813 14.7 22 14.4 102430 74
2004-06-28 07:50:39 51°20.755 2°39.791 15.2 21 14.4 102450 74
2004-06-28 07:50:45 51°20.758 2°39.758 14.3 19 14.4 102450 74
2004-06-28 07:50:49 51°20.759 2°39.735 14.3 20 14.4 102450 74
2004-06-28 07:50:54 51°20.762 2°39.708 14.9 21 14.4 102450 74
2004-06-28 07:50:59 51°20.763 2°39.681 14.4 22 14.4 102450 74
2004-06-28 07:51:05 51°20.766 2°39.648 15.1 20 14.4 102450 74
2004-06-28 07:51:09 51°20.768 2°39.626 14.6 15 14.4 102450 73
2004-06-28 07:51:15 51°20.77 2°39.593 14.6 16 14.4 102450 73
2004-06-28 07:51:18 51°20.771 2°39.576 14 18 14.4 102450 73
2004-06-28 07:51:25 51°20.774 2°39.537 14.8 20 14.4 102450 73
2004-06-28 07:51:29 51°20.776 2°39.515 15.4 17 14.4 102440 74
2004-06-28 07:51:33 51°20.778 2°39.493 14.8 18 14.4 102440 74
2004-06-28 07:51:39 51°20.781 2°39.46 14.5 17 14.4 102450 74
2004-06-28 07:51:45 51°20.783 2°39.427 14.7 16 14.4 102450 74
2004-06-28 07:51:49 51°20.784 2°39.405 14.9 16 14.4 102450 74
2004-06-28 07:51:54 51°20.786 2°39.378 15.1 20 14.4 102450 74
2004-06-28 07:51:59 51°20.789 2°39.35 14 19 14.4 102440 74
2004-06-28 07:52:05 51°20.791 2°39.317 14.3 19 14.4 102440 74
2004-06-28 07:52:09 51°20.792 2°39.296 14.9 17 14.4 102440 74
2004-06-28 07:52:14 51°20.795 2°39.268 14.1 20 14.4 102440 74
2004-06-28 07:52:18 51°20.796 2°39.246 14.7 22 14.4 102450 74
2004-06-28 07:52:25 51°20.799 2°39.208 14.1 19 14.4 102450 74
2004-06-28 07:52:29 51°20.801 2°39.186 13.5 18 14.4 102450 73
2004-06-28 07:52:35 51°20.803 2°39.153 14 20 14.4 102450 73
2004-06-28 07:52:38 51°20.805 2°39.136 14.4 15 14.3 102440 73
2004-06-28 07:52:45 51°20.808 2°39.098 14 14 14.3 102440 73
2004-06-28 07:52:50 51°20.81 2°39.07 14 16 14.4 102440 74
2004-06-28 07:52:54 51°20.811 2°39.048 14.5 18 14.4 102440 74
2004-06-28 07:52:59 51°20.814 2°39.02 14.1 17 14.4 102450 74
2004-06-28 07:53:05 51°20.816 2°38.987 14 15 14.4 102450 74
2004-06-28 07:53:10 51°20.819 2°38.96 13.9 16 14.4 102450 74
2004-06-28 07:53:15 51°20.821 2°38.932 13.1 15 14.4 102450 74
2004-06-28 07:53:19 51°20.822 2°38.911 14.8 15 14.4 102440 74
2004-06-28 07:53:25 51°20.825 2°38.878 14.4 17 14.4 102440 74
2004-06-28 07:53:30 51°20.827 2°38.85 14.7 18 14.4 102440 74
2004-06-28 07:53:35 51°20.829 2°38.823 13.4 17 14.4 102440 74
2004-06-28 07:53:39 51°20.831 2°38.801 14.8 21 14.4 102450 75
2004-06-28 07:53:44 51°20.833 2°38.773 14.5 20 14.4 102450 75
2004-06-28 07:53:50 51°20.835 2°38.74 14.3 19 14.4 102450 75
2004-06-28 07:53:54 51°20.837 2°38.718 14.9 19 14.4 102450 75
2004-06-28 07:53:58 51°20.839 2°38.696 14.3 20 14.4 102450 75
2004-06-28 07:54:03 51°20.841 2°38.669 14 20 14.4 102450 75
2004-06-28 07:54:10 51°20.844 2°38.631 13.4 21 14.4 102440 74
2004-06-28 07:54:15 51°20.846 2°38.603 12.3 18 14.4 102440 74
2004-06-28 07:54:19 51°20.848 2°38.581 13.6 20 14.4 102440 74
2004-06-28 07:54:25 51°20.85 2°38.549 13.8 20 14.4 102440 74
2004-06-28 07:54:30 51°20.853 2°38.521 13.8 18 14.4 102430 74
2004-06-28 07:54:35 51°20.855 2°38.494 13.1 21 14.4 102430 74
2004-06-28 07:54:39 51°20.857 2°38.472 13.9 21 14.4 102450 74
2004-06-28 07:54:45 51°20.86 2°38.439 13.9 18 14.4 102450 74
2004-06-28 07:54:50 51°20.862 2°38.412 14.6 21 14.4 102450 75
2004-06-28 07:54:55 51°20.864 2°38.384 13.4 21 14.4 102450 75
2004-06-28 07:54:59 51°20.865 2°38.362 14 22 14.4 102440 75
2004-06-28 07:55:05 51°20.868 2°38.33 13.8 23 14.4 102440 75
2004-06-28 07:55:10 51°20.87 2°38.302 13.1 21 14.4 102440 75
2004-06-28 07:55:15 51°20.872 2°38.274 14.3 20 14.4 102440 75
2004-06-28 07:55:19 51°20.874 2°38.252 14 20 14.4 102440 75
2004-06-28 07:55:25 51°20.877 2°38.22 14.4 22 14.4 102440 75
2004-06-28 07:55:29 51°20.878 2°38.197 14.6 23 14.4 102440 75
2004-06-28 07:55:35 51°20.881 2°38.164 14.2 20 14.4 102440 75
2004-06-28 07:55:39 51°20.882 2°38.142 13.6 19 14.4 102440 75
2004-06-28 07:55:45 51°20.885 2°38.109 14.3 24 14.4 102440 75
2004-06-28 07:55:50 51°20.887 2°38.082 14.4 22 14.4 102440 74
2004-06-28 07:55:54 51°20.889 2°38.06 13.8 19 14.4 102440 74
2004-06-28 07:55:59 51°20.891 2°38.033 14.1 20 14.4 102430 74
2004-06-28 07:56:05 51°20.893 2°38 14.1 19 14.4 102430 74
2004-06-28 07:56:10 51°20.895 2°37.972 13.9 18 14.4 102440 74
2004-06-28 07:56:15 51°20.897 2°37.945 15.7 18 14.4 102440 74
2004-06-28 07:56:19 51°20.899 2°37.923 14.8 17 14.4 102450 75
2004-06-28 07:56:25 51°20.901 2°37.89 14.8 17 14.4 102450 75
2004-06-28 07:56:29 51°20.903 2°37.868 15.8 17 14.4 102440 75
2004-06-28 07:56:35 51°20.905 2°37.835 14.8 20 14.4 102440 75
2004-06-28 07:56:38 51°20.907 2°37.818 15.1 19 14.4 102440 75
2004-06-28 07:56:45 51°20.91 2°37.78 14.4 16 14.4 102440 75
2004-06-28 07:56:50 51°20.912 2°37.752 14.9 16 14.4 102440 74
2004-06-28 07:56:54 51°20.914 2°37.73 15.4 18 14.4 102440 74
2004-06-28 07:56:59 51°20.916 2°37.703 15.8 18 14.4 102440 74
2004-06-28 07:57:05 51°20.918 2°37.67 15.5 19 14.4 102440 74
2004-06-28 07:57:10 51°20.92 2°37.643 14.3 19 14.4 102440 74
2004-06-28 07:57:15 51°20.922 2°37.615 13.9 18 14.4 102440 74
2004-06-28 07:57:19 51°20.925 2°37.593 13.9 17 14.4 102440 74
2004-06-28 07:57:25 51°20.927 2°37.561 14.3 19 14.4 102440 74
2004-06-28 07:57:30 51°20.929 2°37.533 14.6 17 14.4 102440 74
2004-06-28 07:57:35 51°20.931 2°37.506 14.1 17 14.4 102440 74
2004-06-28 07:57:39 51°20.933 2°37.484 13.9 16 14.4 102450 74
2004-06-28 07:57:45 51°20.935 2°37.451 14.1 17 14.4 102450 74
2004-06-28 07:57:50 51°20.937 2°37.424 14.1 15 14.4 102450 74
2004-06-28 07:57:55 51°20.939 2°37.397 13.5 15 14.4 102450 74
2004-06-28 07:57:59 51°20.941 2°37.375 15.3 15 14.4 102450 74
2004-06-28 07:58:05 51°20.943 2°37.342 14.2 13 14.4 102450 74
2004-06-28 07:58:10 51°20.946 2°37.315 14.5 15 14.4 102450 74
2004-06-28 07:58:15 51°20.947 2°37.288 13.8 13 14.4 102450 74
2004-06-28 07:58:19 51°20.949 2°37.266 14.5 18 14.4 102440 74
2004-06-28 07:58:25 51°20.952 2°37.233 14.8 16 14.4 102440 74
2004-06-28 07:58:29 51°20.954 2°37.212 14.7 14 14.4 102450 74
2004-06-28 07:58:35 51°20.956 2°37.179 15.4 15 14.4 102450 74
2004-06-28 07:58:39 51°20.958 2°37.157 14.3 17 14.3 102450 74
2004-06-28 07:58:45 51°20.96 2°37.125 15 15 14.3 102450 74
2004-06-28 07:58:49 51°20.963 2°37.103 15.4 17 14.3 102460 74
2004-06-28 07:58:55 51°20.965 2°37.071 14.2 15 14.3 102460 74
2004-06-28 07:58:59 51°20.967 2°37.049 14.4 16 14.3 102440 73
2004-06-28 07:59:05 51°20.969 2°37.017 14 17 14.3 102440 73
2004-06-28 07:59:10 51°20.971 2°36.99 14.1 13 14.3 102440 73
2004-06-28 07:59:15 51°20.973 2°36.962 14.9 17 14.3 102440 73
2004-06-28 07:59:19 51°20.975 2°36.941 14.4 22 14.3 102440 73
2004-06-28 07:59:25 51°20.978 2°36.908 15.1 21 14.3 102440 73
2004-06-28 07:59:29 51°20.979 2°36.887 14.2 20 14.3 102450 73
2004-06-28 07:59:35 51°20.981 2°36.855 14.6 19 14.3 102450 73
2004-06-28 07:59:39 51°20.983 2°36.833 14.4 20 14.3 102450 73
2004-06-28 07:59:43 51°20.984 2°36.812 14.3 22 14.3 102450 73
2004-06-28 07:59:50 51°20.987 2°36.774 14.3 22 14.3 102450 73
2004-06-28 07:59:54 51°20.989 2°36.752 13.7 14 14.3 102450 73
2004-06-28 07:59:59 51°20.991 2°36.725 13.9 20 14.3 102450 73
2004-06-28 08:00:05 51°20.992 2°36.693 14 20 14.3 102450 73
2004-06-28 08:00:09 51°20.994 2°36.671 13.8 17 14.3 102450 73
2004-06-28 08:00:15 51°20.997 2°36.639 14.9 21 14.3 102450 73
2004-06-28 08:00:19 51°20.999 2°36.617 14.4 22 14.3 102440 73
2004-06-28 08:00:25 51°21.001 2°36.584 14.4 18 14.3 102440 73
2004-06-28 08:00:30 51°21.003 2°36.558 14.7 22 14.3 102450 73
2004-06-28 08:00:34 51°21.005 2°36.536 15 20 14.3 102450 73
2004-06-28 08:00:39 51°21.007 2°36.508 15 18 14.3 102440 73
2004-06-28 08:00:45 51°21.01 2°36.476 14.7 22 14.3 102440 73
2004-06-28 08:00:49 51°21.011 2°36.454 15.2 20 14.3 102440 73
2004-06-28 08:00:55 51°21.014 2°36.421 13.6 16 14.3 102440 73
2004-06-28 08:00:58 51°21.015 2°36.405 14.4 19 14.3 102450 73
2004-06-28 08:01:05 51°21.018 2°36.367 14.6 19 14.3 102450 73
2004-06-28 08:01:10 51°21.02 2°36.34 14.4 21 14.3 102430 73
2004-06-28 08:01:13 51°21.021 2°36.323 14.3 19 14.3 102430 73
2004-06-28 08:01:18 51°21.023 2°36.296 14.3 20 14.3 102440 74
2004-06-28 08:01:25 51°21.026 2°36.258 14.5 17 14.3 102440 74
2004-06-28 08:01:29 51°21.028 2°36.236 14.6 19 14.3 102440 74
2004-06-28 08:01:34 51°21.03 2°36.209 13.9 17 14.3 102440 74
2004-06-28 08:01:39 51°21.032 2°36.182 13.8 19 14.3 102440 73
2004-06-28 08:01:45 51°21.034 2°36.149 14.4 20 14.3 102440 73
2004-06-28 08:01:50 51°21.037 2°36.123 14.6 17 14.3 102440 74
2004-06-28 08:01:55 51°21.039 2°36.095 13.9 17 14.3 102440 74
2004-06-28 08:01:59 51°21.041 2°36.074 13.7 21 14.3 102440 73
2004-06-28 08:02:05 51°21.043 2°36.041 13.5 17 14.3 102440 73
2004-06-28 08:02:09 51°21.045 2°36.02 14.2 17 14.3 102440 73
2004-06-28 08:02:14 51°21.048 2°35.993 14.3 20 14.3 102440 73
2004-06-28 08:02:19 51°21.05 2°35.967 13.6 20 14.3 102440 74
2004-06-28 08:02:25 51°21.053 2°35.934 14.2 21 14.3 102440 74
2004-06-28 08:02:30 51°21.055 2°35.908 13.6 18 14.3 102440 74
2004-06-28 08:02:34 51°21.057 2°35.886 13.6 18 14.3 102440 74
2004-06-28 08:02:38 51°21.059 2°35.865 13 17 14.3 102440 74
2004-06-28 08:02:43 51°21.061 2°35.838 13.6 24 14.3 102440 74
2004-06-28 08:02:50 51°21.065 2°35.799 13.9 22 14.3 102440 73
2004-06-28 08:02:55 51°21.067 2°35.772 15.2 21 14.3 102440 73
2004-06-28 08:02:58 51°21.069 2°35.756 14.3 20 14.3 102450 74
2004-06-28 08:03:05 51°21.072 2°35.718 14.2 19 14.3 102450 74
2004-06-28 08:03:10 51°21.073 2°35.691 14.3 19 14.3 102440 74
2004-06-28 08:03:15 51°21.076 2°35.663 14.4 19 14.3 102440 74
2004-06-28 08:03:19 51°21.078 2°35.641 13.6 17 14.3 102440 74
2004-06-28 08:03:25 51°21.081 2°35.609 14.3 18 14.3 102440 74
2004-06-28 08:03:30 51°21.083 2°35.581 14.2 18 14.3 102440 74
2004-06-28 08:03:33 51°21.084 2°35.565 13.5 21 14.3 102440 74
2004-06-28 08:03:39 51°21.087 2°35.532 13.8 19 14.3 102440 74
2004-06-28 08:03:45 51°21.09 2°35.499 13 15 14.3 102440 74
2004-06-28 08:03:49 51°21.092 2°35.477 13.4 19 14.3 102440 74
2004-06-28 08:03:55 51°21.094 2°35.444 14.1 21 14.3 102440 74
2004-06-28 08:03:59 51°21.096 2°35.422 13.7 22 14.3 102430 74
2004-06-28 08:04:03 51°21.098 2°35.4 13.7 21 14.3 102430 74
2004-06-28 08:04:10 51°21.102 2°35.362 13.4 19 14.3 102450 74
2004-06-28 08:04:14 51°21.104 2°35.34 13.7 18 14.3 102450 74
2004-06-28 08:04:19 51°21.106 2°35.313 14.1 20 14.3 102440 74